Flag for Paraguay Weather past 2 weeks in Asuncion, Paraguay

Now
88 °F

Thunderstorms. Broken clouds.


Feels Like: 100 °F
Forecast: 78 / 92 °F
Wind: 5 mph from East

Location: Asuncion / Aeropuerto

Current Time: Mar 2, 2015 at 4:49:00 PM

Latest Report: Mar 2, 2015 at 4:00 PM


Visibility: N/A

Pressure: 29.80 "Hg

Humidity: 70%

Dew point: 77 °F

Location of AsuncionLocation

Historic Weather in Asuncion — Graph

°F

Asuncion temperature yesterday

Maximum temperature yesterday: 93 °F (at 4:00 PM)
Minimum temperature yesterday: 77 °F (at 2:00 AM)
Average temperature yesterday: 83 °F

Past Weeks' High & Low Weather Summary

 TemperatureHumidityPressure
High95 °F (Feb 23, 2:00 PM)100% (Feb 16, 11:00 PM)30.01 "Hg (Feb 16, 11:00 PM)
Low70 °F (Feb 18, 6:00 AM)46% (Feb 18, 6:00 PM)29.56 "Hg (Feb 18, 6:00 PM)
Average81 °F79%29.85 "Hg
* Reported Feb 15 3:00 PM — Mar 2 3:00 PM, Asuncion, Weather by CustomWeather, © 2015

Note: Actual official high and low records may vary slightly from our data, if they occured in-between our weather recording intervals... More about our weather records

Advertising

Asuncion weather history for previous 24 hours

 ConditionsComfort  
Time TempWeatherWind HumidityBarometerVisibility
3:00 PM
Mon, Mar 2
91 °FThunderstorms. Broken clouds.8 mph63%29.83 "HgN/A
2:00 PM90 °FBroken clouds.9 mph67%29.86 "HgN/A
1:00 PM90 °FBroken clouds.10 mph67%29.89 "HgN/A
12:00 PM88 °FBroken clouds.12 mph62%29.89 "HgN/A
11:00 AM88 °FPartly sunny.10 mph66%29.92 "HgN/A
10:30 AM88 °FPartly sunny.8 mph66%29.92 "HgN/A
10:00 AM86 °FPartly sunny.7 mph66%29.92 "HgN/A
9:30 AM86 °FPartly sunny.10 mph66%29.92 "HgN/A
9:00 AM84 °FPartly sunny.7 mph70%29.89 "HgN/A
8:30 AM82 °FPassing clouds.6 mph74%29.89 "HgN/A
8:00 AM81 °FPassing clouds.6 mph79%29.89 "HgN/A
7:00 AM77 °FThunderstorms. Passing clouds.2 mph89%29.86 "HgN/A
6:00 AM77 °FThunderstorms. Passing clouds.2 mph89%29.86 "HgN/A
5:00 AM79 °FPassing clouds.3 mph84%29.83 "HgN/A
4:00 AM79 °FThunderstorms. Passing clouds.3 mph89%29.83 "HgN/A
3:00 AM77 °FThunderstorms. Passing clouds.2 mph94%29.83 "HgN/A
2:00 AM77 °FThunderstorms. Passing clouds.No wind94%29.86 "HgN/A
1:00 AM79 °FClear.2 mph89%29.89 "Hg10 mi
12:00 AM79 °FPassing clouds.No wind89%29.89 "HgN/A
11:00 PM
Sun, Mar 1
79 °FPassing clouds.No wind89%29.89 "HgN/A
10:00 PM79 °FPassing clouds.No wind89%29.86 "HgN/A
9:00 PM81 °FThunderstorms. Passing clouds.2 mph79%29.83 "HgN/A
8:00 PM82 °FPassing clouds.5 mph79%29.80 "HgN/A
7:00 PM86 °FPassing clouds.8 mph70%29.80 "HgN/A
6:00 PM91 °FPassing clouds.8 mph56%29.77 "HgN/A
5:00 PM90 °FThunderstorms. Partly sunny.7 mph63%29.80 "HgN/A
4:00 PM93 °FThunderstorms. Broken clouds.10 mph56%29.80 "HgN/A
Weather by CustomWeather, © 2015

See weather overviewHow to use our weather pages